[[{"header":{"parameterUnit":"m.s-1","parameterCategory":1,"la1":30.2991,"la2":30.254,"lo1":-89.0895,"lo2":-89.0444,"dy":0.0017,"dx":0.0017,"nx":28,"ny":28,"refTime":"2024-03-27T09:00:00:Z","depth":0,"parameterNumber":2,"parameterNumberName":"U-component_of_WINDS"},"data":[0,0,0,0,0,0,0,0,0,0,0,0,0,0,0,0,0,0,0,0,0,0,0,0,0,0,0,0,0,0,0,0,0,0,0,0,0,0,0,0,0,0,0,0,0,0,0,0,0,0,0,0,0,0,0,0,0,0,-0.3142,-0.3142,0,-0.3114,-0.3114,-0.3114,-0.3081,-0.308,-0.308,-0.3079,-0.3052,-0.3051,-0.3051,0,0,0,0,0,0,0,0,0,0,0,0,0,-0.3166,-0.3166,-0.3142,-0.3142,-0.3141,-0.3115,-0.3114,-0.3114,-0.3081,-0.308,-0.308,-0.3079,-0.3052,-0.3052,-0.3051,0,0,0,0,0,0,0,0,0,0,0,0,0,-0.3149,-0.3166,-0.3142,-0.3122,-0.312,-0.3115,-0.3114,-0.3114,-0.3081,-0.308,-0.308,-0.3079,-0.3052,-0.3052,-0.3051,-0.3064,0,0,-0.305,-0.305,0,0,0,0,0,0,0,0,-0.315,-0.3148,-0.3125,-0.3123,-0.3121,-0.31,-0.3112,-0.3097,-0.3081,-0.3096,-0.3079,-0.3079,-0.3069,-0.3067,-0.3063,-0.3063,-0.3062,-0.305,-0.305,-0.305,-0.3049,0,0,0,0,0,0,0,-0.3151,-0.3149,-0.3131,-0.3125,-0.3122,-0.3114,-0.3111,-0.3109,-0.3087,-0.3094,-0.3092,-0.3089,-0.3067,-0.3064,-0.3062,-0.3061,-0.305,-0.305,-0.3049,-0.3049,-0.3069,-0.3069,0,0,0,0,0,0,-0.3155,-0.315,-0.3132,-0.313,-0.3134,-0.3114,-0.311,-0.3108,-0.3087,-0.3083,-0.309,-0.3088,-0.3065,-0.3063,-0.3061,-0.3074,-0.305,-0.3049,-0.3049,-0.3068,-0.3069,-0.307,0,0,0,0,0,0,-0.3156,-0.3154,-0.3133,-0.3139,-0.3136,-0.3114,-0.3112,-0.3108,-0.3104,-0.3083,-0.3079,-0.309,-0.3064,-0.3062,-0.3063,-0.3073,-0.3049,-0.3049,-0.3067,-0.3068,-0.3069,-0.3101,0,0,0,0,0,0,-0.3157,-0.3154,-0.3159,-0.314,-0.3136,-0.3136,-0.3112,-0.3108,-0.3103,-0.31,-0.3083,-0.3079,-0.3063,-0.3064,-0.3063,-0.3072,-0.3048,-0.3066,-0.3068,-0.3069,-0.3099,-0.3104,-0.3107,0,0,0,0,0,-0.3158,-0.317,-0.316,-0.3158,-0.3142,-0.3137,-0.3134,-0.3116,-0.3104,-0.3109,-0.3095,-0.308,-0.3072,-0.3065,-0.3063,-0.3072,-0.3065,-0.3067,-0.3069,-0.3098,-0.3103,-0.3107,0,0,0,0,0,0,-0.3191,-0.3167,-0.3155,-0.3162,-0.3151,-0.3131,-0.3136,-0.3122,-0.3115,-0.3112,-0.309,-0.3086,-0.309,-0.3081,-0.3073,-0.3083,-0.3066,-0.3068,-0.3089,-0.3093,-0.3097,-0.3099,-0.3048,0,0,0,0,0,-0.3199,-0.3197,-0.3176,-0.3183,-0.3179,-0.3158,-0.3156,-0.3142,-0.3131,-0.3126,-0.3113,-0.3102,-0.3097,-0.3095,-0.3089,-0.3098,-0.3093,-0.3103,-0.3107,-0.311,-0.3112,-0.3115,-0.3119,-0.3075,-0.3075,-0.3075,0,0,-0.3216,-0.3202,-0.3203,-0.319,-0.318,-0.3178,-0.3155,-0.3154,-0.3153,-0.3126,-0.3127,-0.3116,-0.3103,-0.3108,-0.3109,-0.31,-0.3123,-0.3112,-0.3115,-0.3115,-0.3117,-0.3121,-0.3125,-0.3076,-0.3076,-0.3076,0,0,-0.3246,-0.3235,-0.324,-0.3231,-0.3216,-0.3203,-0.3204,-0.3185,-0.3177,-0.3177,-0.3157,-0.3155,-0.3147,-0.3138,-0.3133,-0.3158,-0.3143,-0.3156,-0.3177,-0.318,-0.3183,-0.3186,-0.3195,-0.3198,-0.3158,-0.3158,-0.3158,0,-0.3269,-0.3265,-0.3245,-0.3245,-0.3239,-0.3215,-0.3219,-0.3211,-0.3196,-0.3193,-0.3183,-0.3172,-0.3161,-0.3163,-0.3169,-0.3166,-0.3166,-0.3159,-0.3184,-0.3187,-0.3189,-0.3197,-0.3201,-0.316,-0.316,-0.3159,-0.3159,0,-0.3294,-0.3292,-0.3297,-0.3282,-0.3278,-0.328,-0.326,-0.3257,-0.3244,-0.3231,-0.3231,-0.3217,-0.3208,-0.3207,-0.3194,-0.3207,-0.3202,-0.3188,-0.3171,-0.3196,-0.3203,-0.3206,-0.3162,-0.3162,-0.3161,-0.3161,0,0,-0.3345,-0.3318,-0.332,-0.3313,-0.3295,-0.3293,-0.3293,-0.3284,-0.3282,-0.3272,-0.3272,-0.3266,-0.3253,-0.3247,-0.3232,-0.3235,-0.3255,-0.3221,-0.322,-0.3228,-0.3268,-0.3278,-0.3282,-0.3245,-0.3245,-0.3246,-0.3269,0,-0.3372,-0.3372,-0.3353,-0.3358,-0.3355,-0.3331,-0.3332,-0.332,-0.3308,-0.3304,-0.329,-0.3286,-0.3269,-0.3265,-0.3267,-0.3252,-0.3263,-0.325,-0.3245,-0.3245,-0.3249,-0.3286,-0.3297,-0.332,-0.3272,-0.3272,-0.3272,0,-0.3403,-0.3394,-0.3399,-0.338,-0.3378,-0.3379,-0.3368,-0.3365,-0.3351,-0.3342,-0.3334,-0.3317,-0.3316,-0.33,-0.3298,-0.329,-0.3286,-0.3279,-0.3279,-0.3278,-0.326,-0.3286,-0.3326,-0.333,-0.3277,-0.3276,-0.3276,0,-0.344,-0.3429,-0.343,-0.3425,-0.3402,-0.3404,-0.3394,-0.338,-0.3375,-0.3365,-0.3362,-0.3353,-0.3348,-0.3341,-0.3322,-0.3312,-0.3322,-0.3304,-0.3314,-0.3315,-0.3318,-0.3318,-0.3359,-0.3315,-0.3315,-0.3315,-0.3315,0,-0.3472,-0.3476,-0.3447,-0.3448,-0.3451,-0.3429,-0.3433,-0.3421,-0.3408,-0.3406,-0.3384,-0.3383,-0.3358,-0.3353,-0.3338,-0.3339,-0.3337,-0.3329,-0.3325,-0.3331,-0.3332,-0.3329,-0.3327,-0.3316,-0.3316,-0.3316,-0.3316,0,-0.3514,-0.3494,-0.3494,-0.3473,-0.3467,-0.3471,-0.3452,-0.3452,-0.3437,-0.3435,-0.3433,-0.3411,-0.3404,-0.3385,-0.3373,-0.3363,-0.3368,-0.336,-0.3373,-0.337,-0.3381,-0.3381,-0.3421,-0.3425,-0.338,-0.338,-0.338,0,-0.3535,-0.3538,-0.3516,-0.3513,-0.3505,-0.35,-0.3495,-0.3472,-0.3468,-0.3452,-0.3453,-0.3445,-0.3437,-0.3428,-0.341,-0.3401,-0.3393,-0.3408,-0.3392,-0.3398,-0.3393,-0.3394,-0.3394,-0.3412,-0.3413,-0.3413,-0.3414,0,-0.3576,-0.3566,-0.356,-0.3549,-0.3544,-0.3535,-0.3524,-0.3523,-0.3498,-0.3494,-0.3486,-0.348,-0.3468,-0.346,-0.3448,-0.3438,-0.3421,-0.3419,-0.342,-0.3427,-0.3434,-0.343,-0.3383,-0.3418,-0.3418,-0.3417,-0.3417,-0.3417,-0.3609,-0.3609,-0.3594,-0.3587,-0.3577,-0.3567,-0.3566,-0.3551,-0.3545,-0.3533,-0.352,-0.3514,-0.3499,-0.3481,-0.3472,-0.3467,-0.3458,-0.3461,-0.3462,-0.3463,-0.3466,-0.3434,-0.3465,-0.3465,-0.3464,-0.3464,-0.3464,0,-0.3648,-0.3637,-0.363,-0.3616,-0.3611,-0.3595,-0.3583,-0.3579,-0.3574,-0.3561,-0.3554,-0.3545,-0.3537,-0.3518,-0.3508,-0.3508,-0.35,-0.3506,-0.3506,-0.3503,-0.3474,-0.3473,-0.3512,-0.3512,-0.3512,-0.3512,-0.3512,-0.3512,-0.3668,-0.3668,-0.3656,-0.3651,-0.3639,-0.3633,-0.3627,-0.3618,-0.3608,-0.3599,-0.3592,-0.358,-0.3565,-0.3553,-0.3544,-0.3539,-0.3536,-0.3545,-0.3537,-0.351,-0.3506,-0.3501,-0.3501,-0.3544,-0.3544,-0.3567,-0.3567,-0.3567]},{"header":{"parameterUnit":"m.s-1","parameterCategory":1,"la1":30.2991,"la2":30.254,"lo1":-89.0895,"lo2":-89.0444,"dy":0.0017,"dx":0.0017,"nx":28,"ny":28,"refTime":"2024-03-27T09:00:00:Z","depth":0,"parameterNumber":3,"parameterNumberName":"V-component_of_WINDS"},"data":[0,0,0,0,0,0,0,0,0,0,0,0,0,0,0,0,0,0,0,0,0,0,0,0,0,0,0,0,0,0,0,0,0,0,0,0,0,0,0,0,0,0,0,0,0,0,0,0,0,0,0,0,0,0,0,0,0,0,-3.4709,-3.471,0,-3.4825,-3.4826,-3.4827,-3.4824,-3.4823,-3.4821,-3.482,-3.4935,-3.494,-3.4944,0,0,0,0,0,0,0,0,0,0,0,0,0,-3.4482,-3.4486,-3.4709,-3.471,-3.4712,-3.4825,-3.4826,-3.4828,-3.4825,-3.4823,-3.4821,-3.4819,-3.4934,-3.4939,-3.4945,0,0,0,0,0,0,0,0,0,0,0,0,0,-3.4587,-3.4488,-3.4709,-3.4724,-3.4726,-3.4824,-3.4826,-3.4828,-3.4825,-3.4823,-3.482,-3.4818,-3.4932,-3.4939,-3.4945,-3.5035,0,0,-3.4966,-3.4969,0,0,0,0,0,0,0,0,-3.4581,-3.4596,-3.472,-3.4723,-3.4726,-3.4808,-3.4789,-3.4897,-3.4826,-3.4787,-3.482,-3.4817,-3.4895,-3.4904,-3.4931,-3.504,-3.5045,-3.4967,-3.4971,-3.4974,-3.4976,0,0,0,0,0,0,0,-3.4574,-3.4591,-3.4755,-3.4722,-3.4726,-3.4724,-3.4736,-3.4809,-3.4853,-3.4791,-3.4791,-3.4805,-3.4896,-3.4925,-3.4934,-3.5047,-3.4967,-3.4973,-3.4977,-3.498,-3.5235,-3.5238,0,0,0,0,0,0,-3.4564,-3.4585,-3.4751,-3.4758,-3.4647,-3.473,-3.4744,-3.4784,-3.4852,-3.486,-3.4806,-3.4804,-3.4914,-3.4926,-3.4938,-3.5047,-3.4974,-3.498,-3.4984,-3.5233,-3.5236,-3.5239,0,0,0,0,0,0,-3.4559,-3.4579,-3.4746,-3.4672,-3.4693,-3.4736,-3.4781,-3.4787,-3.4816,-3.4864,-3.4871,-3.4828,-3.4913,-3.4928,-3.5011,-3.5051,-3.4983,-3.499,-3.5229,-3.5234,-3.5237,-3.5267,0,0,0,0,0,0,-3.4553,-3.4577,-3.4612,-3.4672,-3.4697,-3.4818,-3.4784,-3.4791,-3.4828,-3.4826,-3.4886,-3.4894,-3.4912,-3.5001,-3.5018,-3.5059,-3.4995,-3.5226,-3.5231,-3.5236,-3.5262,-3.5271,-3.5279,0,0,0,0,0,-3.4545,-3.4615,-3.4614,-3.4634,-3.4742,-3.4821,-3.4834,-3.4855,-3.4832,-3.4867,-3.4898,-3.4892,-3.5044,-3.5009,-3.5028,-3.5073,-3.5224,-3.523,-3.5236,-3.5259,-3.5269,-3.5279,0,0,0,0,0,0,-3.4557,-3.4623,-3.4623,-3.4715,-3.4762,-3.482,-3.4865,-3.4865,-3.492,-3.4915,-3.4937,-3.4951,-3.5033,-3.5061,-3.5021,-3.5163,-3.5131,-3.5141,-3.5142,-3.5152,-3.5161,-3.5152,-3.5001,0,0,0,0,0,-3.4571,-3.4631,-3.4685,-3.4761,-3.4785,-3.4821,-3.4856,-3.4868,-3.4917,-3.4937,-3.4974,-3.5021,-3.508,-3.5117,-3.5174,-3.5266,-3.5279,-3.5306,-3.5314,-3.5321,-3.5329,-3.5381,-3.5393,-3.5259,-3.5259,-3.5259,0,0,-3.4599,-3.4643,-3.4679,-3.4764,-3.4802,-3.4863,-3.4838,-3.4902,-3.4947,-3.4946,-3.5027,-3.5056,-3.511,-3.5198,-3.5239,-3.5224,-3.537,-3.5329,-3.5334,-3.5339,-3.5388,-3.5401,-3.5412,-3.5263,-3.5262,-3.5262,0,0,-3.4682,-3.4721,-3.4789,-3.4828,-3.4887,-3.4911,-3.4927,-3.4985,-3.5004,-3.5086,-3.5086,-3.514,-3.524,-3.5279,-3.5312,-3.541,-3.5407,-3.5428,-3.5471,-3.5521,-3.5531,-3.5541,-3.5576,-3.5588,-3.5436,-3.5436,-3.5436,0,-3.471,-3.4802,-3.4824,-3.489,-3.4927,-3.493,-3.4999,-3.5035,-3.5109,-3.5134,-3.5117,-3.5243,-3.528,-3.5377,-3.5401,-3.5428,-3.5447,-3.5421,-3.5528,-3.5538,-3.5547,-3.5581,-3.5594,-3.5439,-3.5438,-3.5438,-3.5438,0,-3.4833,-3.4897,-3.4945,-3.5017,-3.506,-3.5127,-3.5158,-3.5198,-3.5206,-3.5232,-3.5315,-3.5359,-3.5425,-3.5449,-3.5457,-3.5548,-3.5537,-3.5524,-3.5492,-3.5562,-3.5594,-3.5607,-3.5442,-3.5441,-3.544,-3.544,0,0,-3.4926,-3.5011,-3.5028,-3.5061,-3.5126,-3.5176,-3.5243,-3.5308,-3.5343,-3.5393,-3.5449,-3.5535,-3.5523,-3.5561,-3.5573,-3.5617,-3.5692,-3.5598,-3.56,-3.5614,-3.5795,-3.5804,-3.5819,-3.569,-3.5693,-3.5695,-3.579,0,-3.5016,-3.5136,-3.5158,-3.5262,-3.5321,-3.5326,-3.5384,-3.543,-3.5455,-3.5509,-3.5536,-3.5597,-3.5577,-3.56,-3.5643,-3.5674,-3.5728,-3.5667,-3.5742,-3.5745,-3.5729,-3.5836,-3.5846,-3.5933,-3.5803,-3.5805,-3.5807,0,-3.5137,-3.5192,-3.5303,-3.5361,-3.5386,-3.5438,-3.55,-3.5552,-3.5604,-3.5619,-3.5661,-3.5669,-3.5738,-3.5703,-3.5798,-3.5756,-3.5788,-3.5808,-3.5812,-3.5819,-3.578,-3.5846,-3.5962,-3.5975,-3.5826,-3.5825,-3.5823,0,-3.5193,-3.5296,-3.5375,-3.5403,-3.5473,-3.5509,-3.554,-3.559,-3.5628,-3.5682,-3.5707,-3.5768,-3.5801,-3.5847,-3.5871,-3.5843,-3.5964,-3.5931,-3.5978,-3.5978,-3.6003,-3.6001,-3.6126,-3.6024,-3.6024,-3.6024,-3.6023,0,-3.5291,-3.5359,-3.5402,-3.5451,-3.5526,-3.555,-3.5624,-3.5654,-3.5698,-3.5753,-3.5759,-3.581,-3.5838,-3.5892,-3.5911,-3.5987,-3.6002,-3.6016,-3.602,-3.6015,-3.6014,-3.6036,-3.6031,-3.6027,-3.6026,-3.6026,-3.6025,0,-3.5367,-3.5399,-3.5486,-3.5545,-3.5562,-3.5615,-3.5665,-3.5713,-3.5738,-3.5807,-3.5824,-3.5865,-3.5929,-3.5957,-3.6036,-3.6049,-3.6136,-3.6135,-3.6118,-3.612,-3.6165,-3.6161,-3.6309,-3.6329,-3.6214,-3.6215,-3.6216,0,-3.5427,-3.548,-3.5545,-3.5583,-3.5615,-3.5675,-3.5714,-3.574,-3.578,-3.5844,-3.5884,-3.5949,-3.6002,-3.6105,-3.614,-3.6201,-3.6202,-3.625,-3.6211,-3.6205,-3.6203,-3.6199,-3.6205,-3.6257,-3.6258,-3.6259,-3.626,0,-3.5531,-3.5544,-3.5601,-3.5665,-3.5712,-3.5763,-3.5812,-3.5842,-3.5875,-3.592,-3.5987,-3.6029,-3.611,-3.6175,-3.6238,-3.6268,-3.6269,-3.6272,-3.6286,-3.6281,-3.6269,-3.6277,-3.6138,-3.6268,-3.6267,-3.6266,-3.6266,-3.6266,-3.5601,-3.5648,-3.5701,-3.5765,-3.5805,-3.5852,-3.5899,-3.5932,-3.5988,-3.6058,-3.6069,-3.614,-3.6191,-3.6276,-3.6309,-3.6365,-3.6353,-3.6373,-3.6378,-3.6383,-3.6386,-3.6261,-3.6376,-3.6376,-3.6376,-3.6376,-3.6375,0,-3.5704,-3.574,-3.5798,-3.5868,-3.5918,-3.5916,-3.5971,-3.6013,-3.6076,-3.6124,-3.6177,-3.6254,-3.6316,-3.6358,-3.6421,-3.6457,-3.6459,-3.6473,-3.647,-3.6477,-3.6393,-3.6374,-3.647,-3.647,-3.647,-3.647,-3.647,-3.647,-3.5764,-3.5844,-3.5864,-3.5963,-3.5997,-3.6068,-3.61,-3.6142,-3.6181,-3.6267,-3.632,-3.6347,-3.6392,-3.6459,-3.6516,-3.6526,-3.6549,-3.6563,-3.6573,-3.6493,-3.6483,-3.6474,-3.6457,-3.6568,-3.6568,-3.6653,-3.6654,-3.6654]}]]